| time (UTC) | temp C | wind direction | speed KPH | gust KPH | rain 1hr cm | rain 24hr cm | rain mn cm | humidity % | barometer mb |
| 20260506211525 | 16 | 266 | 0.0 | 0.0 | 0.05 | 0.97 | 0.97 | 93 | 1004.6 |
| 20260506210026 | 16 | 268 | 0.0 | 0.0 | 0.05 | 0.97 | 0.97 | 93 | 1004.4 |
| 20260506204528 | 16 | 315 | 0.0 | 0.0 | 0.03 | 0.94 | 0.94 | 93 | 1004.5 |
| 20260506203021 | 16 | 289 | 0.0 | 1.6 | 0.00 | 0.91 | 0.91 | 92 | 1004.5 |
| 20260506201520 | 16 | 311 | 0.0 | 9.7 | 0.00 | 0.91 | 0.91 | 92 | 1004.6 |
| 20260506200023 | 16 | 360 | 0.0 | 0.0 | 0.00 | 0.91 | 0.91 | 93 | 1004.7 |
| 20260506194526 | 16 | 228 | 0.0 | 9.7 | 0.00 | 0.91 | 0.91 | 93 | 1004.9 |
| 20260506193025 | 16 | 67 | 0.0 | 9.7 | 0.05 | 0.91 | 0.91 | 93 | 1004.8 |
| 20260506191529 | 16 | 75 | 0.0 | 6.4 | 0.10 | 0.91 | 0.91 | 93 | 1005.0 |
| 20260506190020 | 16 | 203 | 0.0 | 3.2 | 0.15 | 0.91 | 0.91 | 93 | 1005.2 |
| 20260506184522 | 16 | 247 | 0.0 | 3.2 | 0.18 | 0.91 | 0.91 | 93 | 1005.3 |
| 20260506183026 | 16 | 194 | 0.0 | 0.0 | 0.15 | 0.86 | 0.86 | 93 | 1005.4 |
| 20260506181514 | 16 | 172 | 0.0 | 1.6 | 0.15 | 0.81 | 0.81 | 93 | 1005.5 |
| 20260506180028 | 16 | 50 | 0.0 | 6.4 | 0.15 | 0.76 | 0.76 | 93 | 1005.6 |
| 20260506174526 | 16 | 229 | 0.0 | 0.0 | 0.18 | 0.74 | 0.74 | 93 | 1005.6 |
| 20260506173026 | 16 | 63 | 0.0 | 1.6 | 0.23 | 0.71 | 0.71 | 93 | 1005.6 |
| 20260506171538 | 16 | 96 | 0.0 | 0.0 | 0.23 | 0.66 | 0.66 | 93 | 1005.8 |
| 20260506170003 | 16 | 101 | 0.0 | 0.0 | 0.25 | 0.61 | 0.61 | 93 | 1005.7 |
| 20260506164503 | 16 | 62 | 0.0 | 0.0 | 0.25 | 0.56 | 0.56 | 92 | 1006.3 |
| 20260506163028 | 16 | 122 | 0.0 | 0.0 | 0.25 | 0.48 | 0.48 | 92 | 1006.5 |
| 20260506161516 | 16 | 200 | 0.0 | 0.0 | 0.28 | 0.43 | 0.43 | 91 | 1007.0 |
| 20260506160014 | 16 | 116 | 0.0 | 0.0 | 0.28 | 0.36 | 0.36 | 91 | 1007.0 |
| 20260506154503 | 16 | 172 | 0.0 | 0.0 | 0.25 | 0.30 | 0.30 | 91 | 1007.0 |
| 20260506153003 | 16 | 172 | 0.0 | 0.0 | 0.20 | 0.23 | 0.23 | 90 | 1007.2 |
| 20260506151504 | 16 | 172 | 0.0 | 0.0 | 0.15 | 0.15 | 0.15 | 89 | 1007.2 |
| 20260506150012 | 17 | 175 | 0.0 | 0.0 | 0.08 | 0.08 | 0.08 | 88 | 1007.4 |
| 20260506144502 | 17 | 175 | 0.0 | 0.0 | 0.05 | 0.05 | 0.05 | 87 | 1007.3 |
| 20260506143003 | 17 | 165 | 0.0 | 4.8 | 0.03 | 0.03 | 0.03 | 84 | 1007.5 |
| 20260506141503 | 18 | 175 | 0.0 | 6.4 | 0.00 | 0.00 | 0.00 | 82 | 1007.6 |
| 20260506140010 | 18 | 208 | 0.0 | 6.4 | 0.00 | 0.00 | 0.00 | 79 | 1007.5 |
| 20260506134526 | 18 | 359 | 0.0 | 14.5 | 0.00 | 0.00 | 0.00 | 76 | 1007.4 |
| 20260506133004 | 19 | 141 | 0.0 | 11.3 | 0.00 | 0.00 | 0.00 | 76 | 1007.1 |
| 20260506131504 | 18 | 229 | 4.8 | 16.1 | 0.00 | 0.00 | 0.00 | 76 | 1006.9 |
| 20260506130005 | 18 | 326 | 0.0 | 12.9 | 0.00 | 0.00 | 0.00 | 77 | 1006.9 |
| 20260506124516 | 18 | 254 | 0.0 | 9.7 | 0.00 | 0.00 | 0.00 | 77 | 1007.2 |
| 20260506123014 | 18 | 127 | 0.0 | 0.0 | 0.00 | 0.00 | 0.00 | 78 | 1007.2 |
| 20260506121507 | 17 | 127 | 0.0 | 3.2 | 0.00 | 0.00 | 0.00 | 79 | 1007.4 |
| 20260506120009 | 17 | 254 | 0.0 | 0.0 | 0.00 | 0.00 | 0.00 | 79 | 1007.6 |
| 20260506114515 | 17 | 254 | 0.0 | 1.6 | 0.00 | 0.00 | 0.00 | 79 | 1007.5 |
| 20260506113032 | 16 | 354 | 0.0 | 0.0 | 0.00 | 0.00 | 0.00 | 80 | 1007.3 |
| 20260506111518 | 16 | 354 | 0.0 | 0.0 | 0.00 | 0.00 | 0.00 | 80 | 1007.2 |
| 20260506110011 | 16 | 354 | 0.0 | 0.0 | 0.00 | 0.00 | 0.00 | 80 | 1007.2 |
| 20260506104506 | 15 | 354 | 0.0 | 0.0 | 0.00 | 0.00 | 0.00 | 82 | 1007.3 |
| 20260506103020 | 15 | 354 | 0.0 | 0.0 | 0.00 | 0.00 | 0.00 | 83 | 1007.1 |
| 20260506101514 | 14 | 335 | 0.0 | 0.0 | 0.00 | 0.00 | 0.00 | 84 | 1007.0 |
| 20260506100030 | 14 | 335 | 0.0 | 0.0 | 0.00 | 0.00 | 0.00 | 84 | 1007.0 |
| 20260506094524 | 14 | 330 | 0.0 | 0.0 | 0.00 | 0.00 | 0.00 | 83 | 1007.1 |
| 20260506093005 | 14 | 330 | 0.0 | 0.0 | 0.00 | 0.00 | 0.00 | 83 | 1007.1 |
| 20260506091511 | 14 | 332 | 0.0 | 0.0 | 0.00 | 0.00 | 0.00 | 82 | 1006.8 |
| 20260506090017 | 15 | 273 | 0.0 | 0.0 | 0.00 | 0.00 | 0.00 | 81 | 1007.0 |
| 20260506084519 | 15 | 273 | 0.0 | 0.0 | 0.00 | 0.00 | 0.00 | 78 | 1007.2 |
| 20260506083007 | 16 | 273 | 0.0 | 0.0 | 0.00 | 0.00 | 0.00 | 76 | 1007.4 |
| 20260506081506 | 16 | 273 | 0.0 | 0.0 | 0.00 | 0.00 | 0.00 | 72 | 1007.5 |
| 20260506073022 | 18 | 273 | 0.0 | 0.0 | 0.00 | 0.00 | 0.00 | 63 | 1007.2 |
| 20260506071510 | 19 | 273 | 0.0 | 0.0 | 0.00 | 0.00 | 0.00 | 62 | 1007.3 |
| 20260506061505 | 20 | 346 | 0.0 | 9.7 | 0.00 | 0.00 | 0.00 | 61 | 1007.7 |
| 20260506044517 | 21 | 285 | 0.0 | 0.0 | 0.00 | 0.00 | 0.00 | 54 | 1007.8 |
| 20260506043026 | 21 | 282 | 0.0 | 0.0 | 0.00 | 0.00 | 0.00 | 53 | 1007.8 |
| 20260506041518 | 21 | 340 | 0.0 | 8.0 | 0.00 | 0.00 | 0.00 | 52 | 1007.6 |
| 20260506040005 | 22 | 6 | 0.0 | 3.2 | 0.00 | 0.00 | 0.00 | 51 | 1007.5 |
| 20260506034509 | 22 | 358 | 0.0 | 4.8 | 0.00 | 0.00 | 0.00 | 50 | 1007.3 |
| 20260506033015 | 22 | 60 | 0.0 | 11.3 | 0.00 | 0.00 | 0.00 | 50 | 1007.2 |
| 20260506031525 | 22 | 275 | 0.0 | 12.9 | 0.00 | 0.00 | 0.00 | 49 | 1007.3 |
| 20260506030027 | 21 | 229 | 1.6 | 11.3 | 0.00 | 0.00 | 0.00 | 50 | 1007.2 |
| 20260506024520 | 22 | 181 | 0.0 | 4.8 | 0.00 | 0.00 | 0.00 | 50 | 1007.2 |
| 20260506023012 | 22 | 17 | 0.0 | 0.0 | 0.00 | 0.00 | 0.00 | 49 | 1007.4 |
| 20260506021514 | 22 | 338 | 0.0 | 0.0 | 0.00 | 0.00 | 0.00 | 49 | 1007.3 |
| 20260506020021 | 22 | 344 | 0.0 | 0.0 | 0.00 | 0.00 | 0.00 | 48 | 1007.4 |
| 20260506014522 | 23 | 82 | 0.0 | 3.2 | 0.00 | 0.00 | 0.00 | 47 | 1007.2 |
| 20260506013004 | 23 | 58 | 0.0 | 0.0 | 0.00 | 0.00 | 0.00 | 46 | 1007.1 |
| 20260506011520 | 23 | 172 | 0.0 | 4.8 | 0.00 | 0.00 | 0.00 | 45 | 1006.9 |
| 20260506010018 | 23 | 211 | 0.0 | 4.8 | 0.00 | 0.00 | 0.00 | 45 | 1006.8 |
| 20260506004518 | 23 | 172 | 0.0 | 4.8 | 0.00 | 0.00 | 0.00 | 44 | 1006.7 |
| 20260506003022 | 24 | 359 | 0.0 | 11.3 | 0.00 | 0.00 | 0.00 | 43 | 1006.4 |
| 20260506001509 | 24 | 298 | 0.0 | 9.7 | 0.00 | 0.00 | 0.00 | 43 | 1006.2 |
| 20260506000014 | 24 | 155 | 0.0 | 6.4 | 0.00 | 0.00 | 0.00 | 43 | 1006.1 |
| 20260505234536 | 25 | 167 | 1.6 | 12.9 | 0.00 | 0.00 | 0.00 | 41 | 1006.0 |
| 20260505233024 | 25 | 252 | 0.0 | 9.7 | 0.00 | 0.00 | 0.00 | 40 | 1005.8 |
| 20260505231523 | 25 | 63 | 0.0 | 6.4 | 0.00 | 0.00 | 0.00 | 40 | 1005.5 |
| 20260505230011 | 25 | 297 | 0.0 | 8.0 | 0.00 | 0.00 | 0.00 | 39 | 1005.4 |
| 20260505224519 | 25 | 167 | 0.0 | 9.7 | 0.00 | 0.00 | 0.00 | 37 | 1005.2 |
| 20260505223022 | 26 | 187 | 3.2 | 14.5 | 0.00 | 0.00 | 0.00 | 37 | 1005.1 |
| 20260505221528 | 26 | 5 | 1.6 | 14.5 | 0.00 | 0.00 | 0.00 | 36 | 1005.0 |
| 20260505220027 | 26 | 313 | 0.0 | 9.7 | 0.00 | 0.00 | 0.00 | 35 | 1004.8 |
| 20260505214514 | 26 | 8 | 3.2 | 19.3 | 0.00 | 0.00 | 0.00 | 34 | 1004.3 |
| 20260505213024 | 27 | 276 | 3.2 | 20.9 | 0.00 | 0.00 | 0.00 | 34 | 1004.5 |